QPF
0.01 0.00 0.00 0.00 0.00 0.00 0.00 0.00 0.01 0.01 0.01 0.01 0.00 0.00 0.00 0.00 0.00 0.00 0.00 0.00 0.00 0.01 0.01 0.01 0.01 0.01 0.01 0.01 0.01 0.01 0.01 0.01 0.00 0.00 0.00 0.01 0.01 0.01 0.01 0.00 0.00 0.00 0.00
0.00 0.00 0.00 0.00 0.00 0.01 0.00 0.00 0.00 0.01 0.00 0.00 0.00 0.00 0.00 0.00 0.00 0.00 0.00 0.00 0.01 0.01 0.01 0.01 0.01 0.01 0.01 0.01 0.01 0.00 0.00 0.00 0.00 0.01 0.01 0.01 0.00 0.01 0.01 0.00 0.00 0.00 0.01
0.01 0.01 0.00 0.00 0.01 0.02 0.01 0.00 0.00 0.01 0.01 0.00 0.00 0.00 0.00 0.00 0.00 0.00 0.00 0.00 0.01 0.01 0.01 0.01 0.01 0.01 0.01 0.01 0.00 0.00 0.00 0.00 0.01 0.01 0.01 0.01 0.01 0.00 0.01 0.00 0.00 0.00 0.01
0.01 0.01 0.01 0.01 0.01 0.01 0.01 0.01 0.01 0.01 0.00 0.00 0.00 0.00 0.00 0.00 0.00 0.00 0.00 0.00 0.00 0.01 0.01 0.01 0.01 0.01 0.01 0.00 0.00 0.00 0.00 0.01 0.01 0.01 0.01 0.01 0.01 0.00 0.01 0.00 0.00 0.00 0.00
0.00 0.01 0.01 0.01 0.01 0.01 0.01 0.01 0.01 0.00 0.00 0.00 0.00 0.00 0.00 0.00 0.00 0.00 0.00 0.00 0.00 0.00 0.01 0.01 0.00 0.00 0.00 0.00 0.01 0.00 0.01 0.01 0.01 0.01 0.01 0.02 0.03 0.01 0.01 0.01 0.01 0.00 0.00
0.01 0.02 0.02 0.02 0.01 0.01 0.01 0.01 0.01 0.01 0.01 0.00 0.00 0.00 0.00 0.00 0.00 0.00 0.00 0.00 0.01 0.01 0.01 0.00 0.00 0.00 0.00 0.01 0.01 0.01 0.01 0.01 0.01 0.00 0.01 0.01 0.02 0.02 0.01 0.01 0.01 0.01 0.01
0.02 0.03 0.03 0.02 0.02 0.01 0.00 0.00 0.00 0.01 0.01 0.01 0.01 0.01 0.00 0.00 0.00 0.00 0.00 0.00 0.01 0.01 0.01 0.01 0.01 0.00 0.01 0.01 0.01 0.01 0.02 0.02 0.02 0.01 0.01 0.01 0.02 0.03 0.03 0.03 0.03 0.02 0.02
0.01 0.02 0.02 0.02 0.01 0.00 0.00 0.00 0.00 0.01 0.01 0.01 0.01 0.01 0.01 0.01 0.00 0.00 0.00 0.01 0.01 0.01 0.01 0.01 0.01 0.01 0.01 0.01 0.02 0.02 0.03 0.03 0.01 0.01 0.02 0.02 0.02 0.02 0.03 0.03 0.03 0.03 0.02
0.01 0.02 0.03 0.03 0.03 0.02 0.01 0.01 0.01 0.01 0.01 0.01 0.01 0.01 0.01 0.00 0.00 0.01 0.01 0.01 0.01 0.01 0.01 0.01 0.01 0.01 0.01 0.01 0.02 0.02 0.03 0.03 0.03 0.03 0.02 0.04 0.03 0.03 0.05 0.04 0.03 0.04 0.04
0.01 0.03 0.02 0.02 0.03 0.02 0.02 0.02 0.01 0.01 0.01 0.01 0.01 0.01 0.02 0.02 0.01 0.01 0.02 0.02 0.02 0.02 0.02 0.02 0.02 0.02 0.02 0.03 0.03 0.03 0.04 0.02 0.02 0.03 0.04 0.04 0.03 0.05 0.07 0.06 0.04 0.03 0.04
0.01 0.03 0.04 0.04 0.02 0.02 0.02 0.02 0.02 0.02 0.03 0.03 0.02 0.02 0.02 0.03 0.03 0.03 0.03 0.03 0.04 0.04 0.04 0.04 0.04 0.04 0.03 0.03 0.03 0.04 0.03 0.02 0.02 0.02 0.04 0.02 0.03 0.07 0.10 0.07 0.05 0.05 0.05
0.03 0.03 0.03 0.03 0.04 0.04 0.05 0.06 0.05 0.04 0.04 0.03 0.04 0.03 0.04 0.05 0.06 0.05 0.05 0.05 0.05 0.06 0.06 0.06 0.05 0.04 0.03 0.04 0.04 0.04 0.03 0.02 0.03 0.03 0.03 0.02 0.04 0.07 0.08 0.07 0.06 0.06 0.05
0.04 0.04 0.03 0.04 0.06 0.09 0.08 0.07 0.08 0.07 0.06 0.04 0.05 0.05 0.06 0.06 0.06 0.07 0.07 0.06 0.07 0.07 0.08 0.08 0.08 0.06 0.06 0.06 0.06 0.05 0.04 0.04 0.03 0.03 0.04 0.03 0.04 0.07 0.08 0.08 0.06 0.06 0.05
0.03 0.04 0.07 0.06 0.07 0.10 0.09 0.07 0.09 0.10 0.10 0.07 0.06 0.06 0.07 0.07 0.07 0.07 0.07 0.07 0.09 0.11 0.11 0.10 0.10 0.10 0.08 0.07 0.06 0.05 0.06 0.07 0.06 0.05 0.05 0.03 0.04 0.08 0.07 0.07 0.06 0.07 0.07
0.02 0.02 0.03 0.05 0.06 0.05 0.06 0.07 0.10 0.11 0.10 0.08 0.07 0.06 0.08 0.08 0.08 0.10 0.10 0.11 0.11 0.12 0.12 0.10 0.08 0.10 0.10 0.08 0.06 0.04 0.04 0.06 0.06 0.07 0.07 0.04 0.05 0.06 0.07 0.08 0.07 0.08 0.07
0.02 0.02 0.03 0.03 0.04 0.05 0.06 0.09 0.10 0.10 0.10 0.09 0.09 0.08 0.09 0.10 0.10 0.11 0.11 0.13 0.14 0.12 0.12 0.10 0.08 0.09 0.10 0.10 0.07 0.06 0.05 0.06 0.07 0.08 0.08 0.07 0.05 0.05 0.07 0.08 0.08 0.09 0.08
0.01 0.02 0.02 0.03 0.03 0.05 0.07 0.08 0.09 0.11 0.11 0.12 0.13 0.13 0.13 0.12 0.11 0.12 0.11 0.11 0.13 0.12 0.12 0.11 0.11 0.11 0.10 0.10 0.09 0.09 0.07 0.07 0.08 0.08 0.08 0.10 0.09 0.08 0.07 0.07 0.08 0.08 0.08
0.02 0.02 0.02 0.03 0.03 0.05 0.08 0.10 0.11 0.11 0.13 0.15 0.16 0.15 0.15 0.13 0.11 0.10 0.09 0.09 0.09 0.10 0.12 0.12 0.11 0.11 0.11 0.11 0.11 0.09 0.08 0.08 0.07 0.07 0.08 0.08 0.13 0.12 0.10 0.07 0.07 0.08 0.09
0.02 0.02 0.02 0.03 0.04 0.06 0.08 0.09 0.09 0.10 0.12 0.15 0.17 0.18 0.16 0.16 0.13 0.13 0.13 0.11 0.10 0.10 0.10 0.10 0.11 0.11 0.12 0.12 0.11 0.09 0.08 0.08 0.08 0.08 0.08 0.08 0.11 0.12 0.11 0.09 0.09 0.08 0.10
0.02 0.03 0.02 0.02 0.04 0.05 0.07 0.08 0.07 0.08 0.09 0.11 0.14 0.14 0.14 0.13 0.12 0.11 0.11 0.11 0.09 0.09 0.10 0.11 0.11 0.11 0.12 0.13 0.14 0.14 0.13 0.11 0.10 0.10 0.09 0.09 0.09 0.09 0.10 0.10 0.10 0.09 0.09
0.02 0.02 0.03 0.02 0.03 0.05 0.06 0.06 0.06 0.06 0.08 0.10 0.15 0.16 0.13 0.12 0.11 0.11 0.11 0.10 0.10 0.11 0.12 0.14 0.14 0.14 0.14 0.13 0.16 0.18 0.18 0.17 0.15 0.14 0.11 0.10 0.10 0.09 0.10 0.11 0.10 0.07 0.07
0.02 0.02 0.02 0.02 0.02 0.03 0.04 0.05 0.06 0.06 0.09 0.12 0.14 0.16 0.15 0.13 0.12 0.13 0.13 0.10 0.10 0.12 0.15 0.18 0.19 0.17 0.16 0.15 0.16 0.18 0.18 0.19 0.17 0.16 0.16 0.15 0.13 0.13 0.14 0.13 0.13 0.11 0.09
0.02 0.02 0.02 0.02 0.02 0.02 0.02 0.04 0.05 0.07 0.07 0.08 0.09 0.11 0.14 0.14 0.14 0.15 0.13 0.12 0.11 0.11 0.13 0.16 0.19 0.20 0.19 0.18 0.18 0.19 0.19 0.18 0.16 0.18 0.16 0.15 0.15 0.14 0.13 0.13 0.12 0.12 0.11
0.01 0.01 0.02 0.02 0.02 0.01 0.02 0.02 0.03 0.04 0.05 0.06 0.06 0.07 0.10 0.13 0.14 0.12 0.11 0.11 0.10 0.09 0.11 0.13 0.17 0.19 0.18 0.17 0.17 0.16 0.16 0.16 0.15 0.16 0.17 0.16 0.16 0.14 0.12 0.11 0.11 0.10 0.09
0.02 0.02 0.02 0.02 0.03 0.03 0.04 0.06 0.05 0.06 0.08 0.08 0.07 0.06 0.06 0.08 0.11 0.11 0.10 0.11 0.13 0.11 0.11 0.11 0.14 0.18 0.18 0.18 0.19 0.18 0.16 0.15 0.14 0.13 0.16 0.17 0.17 0.14 0.11 0.09 0.08 0.07 0.07
0.02 0.03 0.03 0.03 0.03 0.04 0.05 0.08 0.08 0.11 0.12 0.08 0.07 0.07 0.06 0.05 0.06 0.07 0.08 0.08 0.10 0.11 0.12 0.13 0.11 0.14 0.17 0.18 0.19 0.20 0.17 0.17 0.17 0.15 0.14 0.15 0.15 0.15 0.13 0.10 0.07 0.05 0.04
MSLP
1010.72 1010.99 1011.45 1012.03 1012.64 1013.21 1013.67 1014.03 1014.27 1014.45 1014.62 1014.84 1015.13 1015.51 1015.95 1016.42 1016.87 1017.25 1017.55 1017.75 1017.88 1017.96 1018.03 1018.13 1018.26 1018.42 1018.59 1018.76 1018.88 1018.97 1019.00 1019.01 1019.02 1019.05 1019.13 1019.25 1019.43 1019.62 1019.81 1019.98 1020.10 1020.17 1020.22
1010.66 1011.03 1011.56 1012.18 1012.80 1013.35 1013.78 1014.08 1014.28 1014.43 1014.59 1014.83 1015.15 1015.57 1016.06 1016.56 1017.03 1017.42 1017.70 1017.87 1017.97 1018.03 1018.10 1018.21 1018.38 1018.58 1018.80 1019.00 1019.15 1019.23 1019.25 1019.23 1019.21 1019.23 1019.30 1019.45 1019.66 1019.91 1020.16 1020.38 1020.54 1020.63 1020.68
1010.59 1011.07 1011.68 1012.35 1012.99 1013.53 1013.94 1014.23 1014.41 1014.55 1014.71 1014.95 1015.29 1015.72 1016.21 1016.71 1017.15 1017.51 1017.75 1017.89 1017.97 1018.03 1018.12 1018.27 1018.48 1018.73 1019.00 1019.22 1019.38 1019.44 1019.43 1019.37 1019.31 1019.30 1019.37 1019.54 1019.78 1020.08 1020.39 1020.66 1020.87 1021.00 1021.06
1010.57 1011.15 1011.84 1012.56 1013.23 1013.79 1014.21 1014.50 1014.69 1014.84 1015.01 1015.24 1015.57 1015.98 1016.43 1016.88 1017.27 1017.57 1017.77 1017.88 1017.95 1018.03 1018.15 1018.34 1018.61 1018.91 1019.20 1019.43 1019.57 1019.61 1019.55 1019.45 1019.36 1019.32 1019.39 1019.56 1019.84 1020.18 1020.53 1020.86 1021.11 1021.29 1021.38
1010.62 1011.30 1012.07 1012.84 1013.55 1014.14 1014.59 1014.90 1015.11 1015.28 1015.45 1015.68 1015.98 1016.34 1016.73 1017.10 1017.42 1017.66 1017.81 1017.91 1017.98 1018.08 1018.25 1018.49 1018.79 1019.12 1019.42 1019.64 1019.76 1019.75 1019.66 1019.52 1019.39 1019.34 1019.40 1019.58 1019.88 1020.25 1020.64 1021.00 1021.30 1021.51 1021.64
1010.77 1011.52 1012.33 1013.15 1013.89 1014.52 1015.00 1015.35 1015.60 1015.80 1015.98 1016.19 1016.45 1016.75 1017.07 1017.36 1017.61 1017.79 1017.91 1017.99 1018.09 1018.23 1018.43 1018.71 1019.04 1019.38 1019.66 1019.86 1019.93 1019.88 1019.75 1019.58 1019.44 1019.38 1019.45 1019.65 1019.96 1020.35 1020.75 1021.12 1021.44 1021.67 1021.83
1010.99 1011.77 1012.60 1013.43 1014.20 1014.85 1015.38 1015.77 1016.07 1016.29 1016.49 1016.69 1016.91 1017.16 1017.40 1017.62 1017.80 1017.94 1018.04 1018.14 1018.26 1018.43 1018.68 1018.98 1019.31 1019.63 1019.88 1020.03 1020.06 1019.98 1019.82 1019.64 1019.51 1019.47 1019.56 1019.77 1020.10 1020.48 1020.88 1021.25 1021.55 1021.78 1021.94
1011.25 1012.01 1012.82 1013.63 1014.39 1015.06 1015.61 1016.04 1016.38 1016.64 1016.86 1017.06 1017.26 1017.46 1017.66 1017.83 1017.97 1018.08 1018.18 1018.30 1018.45 1018.65 1018.92 1019.22 1019.54 1019.83 1020.03 1020.13 1020.11 1020.00 1019.84 1019.67 1019.57 1019.57 1019.70 1019.94 1020.27 1020.66 1021.03 1021.37 1021.64 1021.84 1021.98
1011.51 1012.19 1012.93 1013.68 1014.41 1015.06 1015.62 1016.08 1016.45 1016.75 1017.00 1017.22 1017.41 1017.60 1017.76 1017.91 1018.04 1018.15 1018.27 1018.40 1018.58 1018.81 1019.08 1019.37 1019.66 1019.89 1020.04 1020.09 1020.04 1019.92 1019.76 1019.64 1019.59 1019.65 1019.83 1020.11 1020.46 1020.83 1021.18 1021.48 1021.70 1021.85 1021.96
1011.73 1012.30 1012.93 1013.59 1014.24 1014.85 1015.39 1015.87 1016.26 1016.60 1016.88 1017.12 1017.33 1017.52 1017.69 1017.84 1017.97 1018.10 1018.24 1018.40 1018.60 1018.83 1019.10 1019.37 1019.61 1019.79 1019.89 1019.90 1019.83 1019.71 1019.59 1019.52 1019.54 1019.66 1019.90 1020.23 1020.60 1020.97 1021.30 1021.56 1021.74 1021.84 1021.91
1011.92 1012.35 1012.85 1013.39 1013.94 1014.47 1014.98 1015.44 1015.84 1016.20 1016.51 1016.79 1017.03 1017.25 1017.44 1017.61 1017.76 1017.91 1018.08 1018.26 1018.47 1018.70 1018.95 1019.19 1019.39 1019.54 1019.60 1019.59 1019.51 1019.42 1019.34 1019.33 1019.41 1019.61 1019.91 1020.28 1020.68 1021.05 1021.37 1021.61 1021.76 1021.84 1021.87
1012.12 1012.41 1012.76 1013.16 1013.59 1014.03 1014.47 1014.89 1015.28 1015.65 1015.98 1016.29 1016.57 1016.82 1017.05 1017.25 1017.43 1017.61 1017.79 1017.99 1018.20 1018.42 1018.65 1018.87 1019.05 1019.17 1019.22 1019.21 1019.16 1019.10 1019.07 1019.11 1019.26 1019.51 1019.85 1020.26 1020.68 1021.07 1021.40 1021.64 1021.79 1021.87 1021.89
1012.39 1012.54 1012.75 1013.01 1013.31 1013.65 1014.00 1014.36 1014.72 1015.07 1015.41 1015.73 1016.04 1016.33 1016.59 1016.82 1017.04 1017.24 1017.43 1017.63 1017.83 1018.05 1018.26 1018.47 1018.64 1018.76 1018.83 1018.85 1018.84 1018.83 1018.86 1018.95 1019.13 1019.41 1019.78 1020.20 1020.64 1021.05 1021.40 1021.67 1021.84 1021.95 1022.00
1012.80 1012.83 1012.91 1013.04 1013.22 1013.44 1013.69 1013.97 1014.26 1014.57 1014.89 1015.22 1015.54 1015.85 1016.14 1016.40 1016.64 1016.85 1017.04 1017.23 1017.43 1017.64 1017.85 1018.06 1018.25 1018.42 1018.53 1018.61 1018.66 1018.71 1018.78 1018.90 1019.10 1019.38 1019.74 1020.15 1020.59 1021.01 1021.38 1021.70 1021.93 1022.10 1022.20
1013.37 1013.31 1013.29 1013.31 1013.38 1013.48 1013.63 1013.80 1014.01 1014.26 1014.53 1014.84 1015.15 1015.47 1015.77 1016.05 1016.29 1016.50 1016.69 1016.87 1017.05 1017.26 1017.48 1017.71 1017.95 1018.18 1018.38 1018.54 1018.67 1018.78 1018.89 1019.03 1019.21 1019.46 1019.78 1020.16 1020.56 1020.98 1021.38 1021.74 1022.05 1022.30 1022.49
1014.11 1013.98 1013.89 1013.82 1013.79 1013.79 1013.82 1013.89 1014.00 1014.16 1014.37 1014.63 1014.92 1015.22 1015.52 1015.79 1016.03 1016.23 1016.41 1016.57 1016.75 1016.95 1017.18 1017.46 1017.76 1018.08 1018.38 1018.64 1018.87 1019.05 1019.20 1019.34 1019.50 1019.70 1019.95 1020.26 1020.61 1021.01 1021.42 1021.82 1022.19 1022.52 1022.80
1014.95 1014.78 1014.64 1014.51 1014.40 1014.30 1014.23 1014.18 1014.19 1014.25 1014.38 1014.57 1014.82 1015.10 1015.38 1015.64 1015.86 1016.05 1016.21 1016.35 1016.51 1016.71 1016.97 1017.29 1017.67 1018.08 1018.49 1018.87 1019.19 1019.46 1019.65 1019.80 1019.92 1020.06 1020.23 1020.45 1020.74 1021.09 1021.49 1021.91 1022.34 1022.74 1023.10
1015.82 1015.63 1015.45 1015.27 1015.10 1014.92 1014.75 1014.60 1014.50 1014.46 1014.51 1014.63 1014.83 1015.07 1015.32 1015.56 1015.78 1015.94 1016.08 1016.20 1016.34 1016.54 1016.81 1017.17 1017.61 1018.11 1018.63 1019.12 1019.55 1019.89 1020.14 1020.31 1020.41 1020.49 1020.59 1020.73 1020.95 1021.24 1021.61 1022.03 1022.48 1022.93 1023.35
1016.61 1016.41 1016.21 1016.00 1015.78 1015.53 1015.28 1015.04 1014.85 1014.72 1014.69 1014.75 1014.89 1015.09 1015.32 1015.55 1015.74 1015.89 1016.00 1016.10 1016.22 1016.40 1016.67 1017.05 1017.54 1018.10 1018.71 1019.30 1019.83 1020.25 1020.57 1020.76 1020.87 1020.93 1020.98 1021.06 1021.21 1021.45 1021.77 1022.17 1022.62 1023.09 1023.55
1017.27 1017.06 1016.84 1016.61 1016.35 1016.05 1015.74 1015.43 1015.16 1014.96 1014.86 1014.86 1014.96 1015.13 1015.34 1015.55 1015.74 1015.87 1015.96 1016.03 1016.12 1016.27 1016.52 1016.90 1017.39 1017.99 1018.65 1019.31 1019.92 1020.43 1020.82 1021.08 1021.22 1021.29 1021.33 1021.39 1021.51 1021.70 1021.99 1022.35 1022.78 1023.24 1023.70
1017.74 1017.53 1017.31 1017.06 1016.77 1016.44 1016.08 1015.73 1015.40 1015.15 1015.00 1014.96 1015.03 1015.18 1015.38 1015.59 1015.76 1015.89 1015.96 1016.00 1016.05 1016.16 1016.37 1016.70 1017.17 1017.76 1018.43 1019.13 1019.79 1020.38 1020.84 1021.18 1021.40 1021.53 1021.61 1021.69 1021.80 1021.99 1022.25 1022.59 1022.98 1023.41 1023.85
1018.05 1017.84 1017.62 1017.36 1017.05 1016.70 1016.31 1015.93 1015.57 1015.29 1015.11 1015.05 1015.10 1015.24 1015.44 1015.65 1015.82 1015.94 1016.00 1016.02 1016.03 1016.08 1016.21 1016.48 1016.88 1017.42 1018.06 1018.75 1019.44 1020.08 1020.63 1021.06 1021.38 1021.61 1021.78 1021.92 1022.09 1022.29 1022.55 1022.87 1023.24 1023.64 1024.04
1018.25 1018.05 1017.82 1017.55 1017.23 1016.87 1016.47 1016.08 1015.71 1015.42 1015.22 1015.15 1015.20 1015.34 1015.54 1015.75 1015.93 1016.05 1016.10 1016.09 1016.06 1016.05 1016.11 1016.28 1016.58 1017.03 1017.60 1018.25 1018.93 1019.60 1020.21 1020.75 1021.18 1021.54 1021.83 1022.08 1022.33 1022.59 1022.88 1023.20 1023.55 1023.91 1024.29
1018.41 1018.22 1018.00 1017.72 1017.40 1017.03 1016.63 1016.23 1015.87 1015.57 1015.38 1015.31 1015.35 1015.49 1015.68 1015.90 1016.09 1016.21 1016.26 1016.24 1016.18 1016.11 1016.09 1016.15 1016.35 1016.68 1017.14 1017.71 1018.36 1019.03 1019.68 1020.30 1020.85 1021.34 1021.76 1022.15 1022.51 1022.84 1023.19 1023.53 1023.87 1024.22 1024.56
1018.60 1018.43 1018.21 1017.93 1017.60 1017.23 1016.83 1016.44 1016.09 1015.80 1015.61 1015.53 1015.57 1015.70 1015.89 1016.10 1016.29 1016.43 1016.49 1016.46 1016.38 1016.27 1016.18 1016.16 1016.23 1016.44 1016.78 1017.25 1017.82 1018.46 1019.13 1019.80 1020.45 1021.06 1021.62 1022.13 1022.59 1023.03 1023.42 1023.80 1024.15 1024.49 1024.81
1018.86 1018.71 1018.50 1018.21 1017.88 1017.51 1017.12 1016.73 1016.39 1016.11 1015.91 1015.83 1015.85 1015.96 1016.14 1016.34 1016.54 1016.69 1016.76 1016.75 1016.67 1016.54 1016.41 1016.31 1016.29 1016.37 1016.59 1016.94 1017.42 1017.99 1018.64 1019.34 1020.05 1020.74 1021.40 1022.02 1022.58 1023.09 1023.54 1023.95 1024.31 1024.65 1024.97
Thickness
5814 5808 5795 5793 5791 5789 5787 5786 5784 5781 5779 5776 5773 5771 5769 5767 5765 5763 5762 5760 5759 5758 5756 5755 5754 5753 5752 5750 5750 5748 5747 5746 5744 5743 5742 5740 5739 5738 5737 5737 5737 5736 5732
5815 5805 5793 5790 5788 5787 5785 5783 5781 5779 5776 5773 5770 5768 5766 5764 5762 5761 5759 5758 5756 5755 5754 5753 5751 5750 5749 5748 5747 5745 5744 5743 5742 5741 5740 5738 5737 5736 5735 5735 5736 5735 5730
5809 5800 5791 5787 5785 5784 5782 5780 5778 5776 5773 5771 5768 5766 5764 5762 5760 5758 5757 5755 5754 5753 5751 5750 5749 5748 5747 5745 5744 5743 5742 5741 5740 5739 5739 5741 5737 5734 5733 5732 5732 5730 5728
5804 5796 5790 5783 5782 5780 5778 5776 5774 5772 5770 5768 5766 5763 5761 5759 5757 5755 5754 5752 5751 5750 5749 5748 5746 5745 5744 5743 5741 5740 5739 5738 5738 5738 5742 5742 5738 5732 5730 5730 5729 5727 5726
5798 5792 5785 5780 5777 5775 5774 5773 5771 5769 5767 5764 5762 5760 5758 5756 5754 5752 5751 5749 5748 5747 5746 5745 5744 5742 5741 5740 5739 5737 5737 5736 5736 5738 5743 5740 5737 5730 5728 5727 5726 5725 5724
5793 5788 5780 5775 5772 5770 5769 5768 5766 5765 5763 5761 5759 5757 5755 5753 5751 5750 5748 5747 5746 5744 5743 5742 5741 5740 5739 5737 5736 5735 5734 5734 5735 5742 5740 5739 5736 5729 5727 5725 5724 5723 5721
5790 5784 5776 5769 5767 5765 5763 5762 5761 5760 5758 5756 5755 5753 5751 5750 5748 5746 5745 5744 5742 5741 5740 5739 5738 5737 5736 5735 5733 5733 5732 5732 5737 5741 5738 5737 5734 5727 5725 5724 5722 5721 5719
5786 5781 5771 5764 5762 5760 5758 5757 5756 5755 5753 5752 5750 5748 5747 5745 5744 5743 5742 5741 5739 5738 5737 5736 5735 5734 5733 5732 5731 5730 5730 5730 5735 5738 5736 5735 5729 5725 5723 5722 5720 5719 5718
5782 5777 5769 5763 5758 5755 5753 5752 5750 5749 5748 5747 5745 5744 5742 5741 5739 5738 5738 5737 5736 5735 5734 5733 5732 5731 5730 5729 5728 5728 5728 5728 5734 5734 5734 5732 5726 5723 5721 5720 5718 5717 5716
5777 5773 5768 5764 5759 5755 5751 5747 5746 5744 5743 5742 5740 5739 5738 5736 5735 5734 5734 5733 5733 5732 5731 5730 5729 5728 5727 5726 5726 5725 5725 5726 5733 5734 5732 5729 5724 5721 5719 5718 5716 5715 5714
5768 5767 5765 5762 5758 5755 5751 5745 5742 5740 5738 5737 5736 5735 5734 5736 5735 5732 5731 5730 5729 5728 5728 5727 5726 5725 5724 5724 5723 5723 5723 5728 5733 5733 5730 5726 5721 5719 5717 5716 5715 5713 5712
5758 5760 5760 5757 5754 5752 5749 5743 5741 5739 5737 5736 5735 5734 5733 5734 5733 5732 5728 5726 5725 5725 5724 5724 5723 5722 5722 5725 5723 5721 5725 5728 5731 5729 5727 5723 5719 5717 5715 5714 5713 5712 5710
5754 5752 5753 5751 5748 5746 5743 5740 5739 5737 5734 5733 5732 5730 5730 5729 5729 5728 5726 5724 5723 5723 5723 5722 5722 5723 5724 5725 5724 5723 5724 5727 5727 5728 5725 5720 5717 5715 5713 5712 5711 5710 5709
5748 5746 5746 5745 5742 5740 5739 5737 5735 5733 5730 5729 5728 5726 5726 5726 5725 5726 5724 5724 5723 5722 5721 5722 5722 5722 5722 5722 5722 5722 5722 5722 5722 5723 5721 5717 5715 5713 5712 5710 5709 5708 5707
5739 5738 5739 5738 5735 5734 5732 5731 5730 5727 5726 5724 5723 5722 5720 5721 5721 5722 5721 5720 5720 5720 5719 5719 5720 5719 5718 5718 5718 5719 5719 5719 5718 5719 5718 5714 5712 5711 5710 5708 5707 5706 5705
5731 5730 5731 5730 5728 5726 5725 5724 5723 5721 5719 5719 5717 5716 5715 5715 5714 5715 5716 5715 5716 5716 5716 5716 5717 5715 5715 5715 5715 5715 5715 5715 5714 5713 5714 5712 5710 5708 5707 5706 5705 5703 5702
5723 5723 5722 5722 5720 5719 5718 5717 5715 5714 5713 5712 5710 5708 5708 5709 5710 5710 5711 5711 5711 5711 5710 5710 5711 5710 5711 5711 5711 5710 5709 5709 5710 5709 5709 5708 5707 5705 5703 5702 5701 5700 5699
5716 5714 5714 5714 5712 5711 5710 5708 5708 5707 5706 5705 5704 5702 5701 5702 5703 5704 5705 5705 5704 5705 5705 5706 5706 5705 5706 5706 5706 5706 5706 5705 5704 5704 5704 5704 5703 5701 5699 5698 5697 5696 5695
5708 5707 5706 5705 5704 5703 5702 5701 5700 5699 5697 5697 5696 5695 5695 5695 5696 5697 5698 5698 5698 5699 5700 5702 5701 5700 5700 5700 5699 5699 5699 5700 5699 5699 5699 5698 5697 5696 5695 5693 5691 5691 5690
5700 5699 5698 5697 5695 5695 5695 5694 5693 5691 5690 5689 5688 5687 5688 5689 5689 5690 5691 5692 5693 5694 5694 5694 5694 5695 5695 5694 5694 5692 5692 5693 5693 5693 5693 5692 5692 5691 5690 5688 5686 5685 5684
5691 5690 5688 5687 5686 5686 5687 5686 5684 5683 5681 5681 5680 5679 5679 5680 5681 5682 5684 5685 5687 5688 5688 5688 5688 5688 5687 5688 5685 5683 5683 5684 5684 5684 5685 5685 5685 5684 5683 5682 5680 5680 5678
5680 5680 5679 5678 5677 5677 5678 5677 5676 5674 5674 5672 5671 5671 5671 5672 5673 5675 5676 5678 5679 5680 5681 5682 5681 5681 5681 5682 5681 5677 5675 5674 5674 5675 5676 5677 5676 5676 5675 5674 5672 5672 5671
5669 5668 5669 5668 5668 5668 5669 5670 5669 5667 5666 5665 5664 5663 5661 5662 5664 5665 5668 5669 5671 5672 5673 5674 5674 5674 5674 5675 5677 5675 5671 5670 5668 5666 5666 5667 5666 5666 5665 5664 5664 5662 5661
5659 5658 5658 5658 5658 5658 5659 5660 5660 5659 5657 5655 5655 5654 5654 5654 5655 5656 5659 5660 5662 5664 5665 5667 5667 5668 5668 5668 5669 5670 5671 5670 5664 5658 5655 5655 5655 5655 5655 5654 5654 5652 5651
5649 5648 5648 5648 5647 5648 5648 5649 5649 5648 5647 5646 5646 5645 5646 5646 5646 5647 5649 5650 5652 5655 5657 5658 5659 5660 5662 5663 5663 5663 5662 5662 5662 5658 5650 5646 5644 5643 5644 5644 5643 5641 5640
5640 5639 5638 5637 5637 5637 5638 5638 5638 5637 5637 5637 5636 5636 5637 5638 5638 5638 5640 5641 5643 5646 5648 5649 5651 5652 5654 5655 5656 5656 5656 5655 5654 5653 5648 5642 5637 5633 5633 5633 5633 5632 5631